Location: Basin
(44.3800°N, 108.0380°W)
Time: 17:53:43
(UTC-06:00)

N. Korean satellite - Visible Passes

Search period start: 18 March 2019 00:00
Search period end: 28 March 2019 00:00
Orbit: 455 x 511 km, 97.2° (Epoch: 18 March)

Date Brightness Start Highest point End Pass type
(mag) Time Alt. Az. Time Alt. Az. Time Alt. Az.
18 Mar 9.7 06:38:48 10° NE 06:41:29 20° E 06:44:10 10° SE visible
19 Mar 10.5 06:15:51 10° E 06:16:28 10° E 06:17:06 10° E visible
22 Mar 9.8 06:33:08 10° NE 06:35:36 18° E 06:38:06 10° SE visible
26 Mar 9.9 06:27:27 10° NE 06:29:42 16° E 06:31:56 10° SE visible
